SWR87F CYUL-LSZH

Flight info

Callsign SWR87F
Flight time N/A
Altitude 37000
Route ANTEG DCT OBRON DCT MOBUB DCT EBMOS DCT IMORI DCT KITOP DCT ANCER N701A NEEKO/M081F380 NATZ GISTI/N0472F390 DCT LESLU DCT LIZAD DCT JSY DCT ARSUK DCT RESMI DCT TEPRI DCT POGZI DCT GELTA DCT MANAG DCT PEVIT DCT BLM
Aircraft A343/H-SDE2E3FGHIJ4J5M1P2RWXYZ/LB1D1

Departure

Time 2026-04-30 22:21
Airport Montreal / Pierre Elliott Trudeau International Airport (CYUL)

Arrival

Time N/A
Airport Zürich Airport (LSZH)
Time Latitude Longitude Altitude Speed Heading
2026-04-30 21:31 45.45850 -73.75583 111 ft 0 kts
2026-04-30 22:02 45.45838 -73.75585 109 ft 4 kts
2026-04-30 22:02 45.45811 -73.75587 110 ft 4 kts 358°
2026-04-30 22:02 45.45785 -73.75583 110 ft 4 kts 343°
2026-04-30 22:02 45.45763 -73.75567 108 ft 4 kts 296°
2026-04-30 22:03 45.45760 -73.75554 109 ft 0 kts 251°
2026-04-30 22:06 45.45760 -73.75557 108 ft 1 kts 251°
2026-04-30 22:06 45.45757 -73.75570 109 ft 2 kts 251°
2026-04-30 22:07 45.45751 -73.75594 111 ft 3 kts 250°
2026-04-30 22:07 45.45743 -73.75627 109 ft 4 kts 250°
2026-04-30 22:07 45.45732 -73.75668 110 ft 5 kts 250°
2026-04-30 22:07 45.45723 -73.75719 112 ft 6 kts 260°
2026-04-30 22:08 45.45725 -73.75770 109 ft 5 kts 286°
2026-04-30 22:08 45.45741 -73.75812 110 ft 5 kts 303°
2026-04-30 22:08 45.45763 -73.75853 112 ft 5 kts 308°
2026-04-30 22:08 45.45790 -73.75896 111 ft 6 kts 313°
2026-04-30 22:09 45.45828 -73.75925 108 ft 7 kts 343°
2026-04-30 22:09 45.45879 -73.75942 111 ft 8 kts 348°
2026-04-30 22:09 45.45936 -73.75952 111 ft 8 kts 356°
2026-04-30 22:09 45.45994 -73.75955 112 ft 9 kts 358°
2026-04-30 22:10 45.46059 -73.75958 113 ft 10 kts 358°
2026-04-30 22:10 45.46120 -73.75919 111 ft 10 kts 58°
2026-04-30 22:10 45.46128 -73.75815 111 ft 11 kts 87°
2026-04-30 22:10 45.46131 -73.75706 112 ft 11 kts 88°
2026-04-30 22:11 45.46137 -73.75458 115 ft 13 kts 88°
2026-04-30 22:11 45.46141 -73.75338 115 ft 11 kts 87°
2026-04-30 22:11 45.46144 -73.75238 119 ft 10 kts 88°
2026-04-30 22:12 45.46146 -73.75140 120 ft 10 kts 88°
2026-04-30 22:12 45.46149 -73.75030 111 ft 12 kts 88°
2026-04-30 22:12 45.46153 -73.74911 121 ft 12 kts 88°
2026-04-30 22:12 45.46156 -73.74801 118 ft 11 kts 88°
2026-04-30 22:13 45.46160 -73.74686 122 ft 12 kts 86°
2026-04-30 22:13 45.46148 -73.74576 117 ft 9 kts 122°
2026-04-30 22:13 45.46125 -73.74483 115 ft 11 kts 94°
2026-04-30 22:13 45.46129 -73.74370 116 ft 12 kts 86°
2026-04-30 22:14 45.46133 -73.74249 117 ft 13 kts 87°
2026-04-30 22:14 45.46139 -73.74112 118 ft 15 kts 86°
2026-04-30 22:14 45.46192 -73.73988 113 ft 15 kts 44°
2026-04-30 22:14 45.46262 -73.73896 116 ft 12 kts 42°
2026-04-30 22:15 45.46324 -73.73815 117 ft 12 kts 43°
2026-04-30 22:15 45.46389 -73.73729 118 ft 13 kts 42°
2026-04-30 22:15 45.46455 -73.73644 118 ft 13 kts 42°
2026-04-30 22:15 45.46528 -73.73548 115 ft 16 kts 43°
2026-04-30 22:16 45.46611 -73.73438 114 ft 17 kts 42°
2026-04-30 22:16 45.46700 -73.73322 112 ft 18 kts 43°
2026-04-30 22:17 45.46971 -73.72966 119 ft 16 kts 43°
2026-04-30 22:17 45.47050 -73.72859 116 ft 16 kts 44°
2026-04-30 22:17 45.47221 -73.72639 115 ft 18 kts 42°
2026-04-30 22:18 45.47316 -73.72514 115 ft 19 kts 43°
2026-04-30 22:18 45.47510 -73.72258 116 ft 18 kts 41°
2026-04-30 22:19 45.47689 -73.72024 118 ft 16 kts 43°
2026-04-30 22:19 45.47774 -73.71912 116 ft 17 kts 42°
2026-04-30 22:19 45.47764 -73.71673 112 ft 18 kts 163°
2026-04-30 22:20 45.47668 -73.71657 113 ft 9 kts 203°
2026-04-30 22:20 45.47540 -73.71810 114 ft 38 kts 221°
2026-04-30 22:20 45.47209 -73.72252 113 ft 90 kts 223°
2026-04-30 22:21 45.46637 -73.72999 112 ft 132 kts 223°
2026-04-30 22:21 45.45868 -73.73990 165 ft 163 kts 219°
2026-04-30 22:21 45.44984 -73.74940 681 ft 156 kts 220°
2026-04-30 22:21 45.44167 -73.75964 1035 ft 160 kts 228°
2026-04-30 22:22 45.43381 -73.77139 1318 ft 171 kts 229°
2026-04-30 22:22 45.42489 -73.78379 1509 ft 186 kts 224°
2026-04-30 22:22 45.41691 -73.79851 1672 ft 195 kts 256°
2026-04-30 22:22 45.41643 -73.81824 1867 ft 208 kts 282°
2026-04-30 22:23 45.42310 -73.83713 2190 ft 226 kts 310°
2026-04-30 22:23 45.43624 -73.85040 2770 ft 236 kts 327°
2026-04-30 22:23 45.45157 -73.85958 3455 ft 244 kts 340°
2026-04-30 22:23 45.46886 -73.86034 4084 ft 258 kts 10°
2026-04-30 22:24 45.48569 -73.85056 4820 ft 267 kts 27°
2026-04-30 22:24 45.50111 -73.83520 5570 ft 273 kts 36°
2026-04-30 22:24 45.51555 -73.81728 6336 ft 277 kts 39°
2026-04-30 22:24 45.52974 -73.79850 7024 ft 280 kts 40°
2026-04-30 22:25 45.54422 -73.77955 7701 ft 285 kts 39°
2026-04-30 22:25 45.55918 -73.76067 8344 ft 289 kts 39°
2026-04-30 22:25 45.57457 -73.74196 9014 ft 293 kts 38°
2026-04-30 22:25 45.59040 -73.72323 9663 ft 297 kts 38°
2026-04-30 22:26 45.62327 -73.68514 10517 ft 318 kts 38°
2026-04-30 22:26 45.64086 -73.66486 10761 ft 333 kts 38°
2026-04-30 22:26 45.65930 -73.64357 11005 ft 348 kts 38°
2026-04-30 22:27 45.67846 -73.62137 11249 ft 362 kts 38°
2026-04-30 22:27 45.69836 -73.59823 11504 ft 376 kts 38°
2026-04-30 22:27 45.73995 -73.54975 12311 ft 392 kts 39°
2026-04-30 22:28 45.78266 -73.49984 13384 ft 401 kts 39°